[[{"header":{"parameterUnit":"m.s-1","parameterCategory":1,"la1":30.2991,"la2":30.254,"lo1":-89.0895,"lo2":-89.0444,"dy":0.0017,"dx":0.0017,"nx":28,"ny":28,"refTime":"2025-04-19T09:00:00:Z","depth":0,"parameterNumber":2,"parameterNumberName":"U-component_of_WINDS"},"data":[0,0,0,0,0,0,0,0,0,0,0,0,0,0,0,0,0,0,0,0,0,0,0,0,0,0,0,0,0,0,0,0,0,0,0,0,0,0,0,0,0,0,0,0,0,0,0,0,0,0,0,0,0,0,0,0,0,0,-5.6947,-5.6949,0,-5.7118,-5.712,-5.7122,-5.712,-5.7117,-5.7115,-5.7113,-5.7286,-5.7293,-5.7299,0,0,0,0,0,0,0,0,0,0,0,0,0,-5.6617,-5.6623,-5.6947,-5.6949,-5.6951,-5.7118,-5.712,-5.7122,-5.712,-5.7117,-5.7115,-5.7112,-5.7284,-5.7292,-5.73,0,0,0,0,0,0,0,0,0,0,0,0,0,-5.6772,-5.6625,-5.6946,-5.697,-5.6974,-5.7117,-5.712,-5.7123,-5.7121,-5.7117,-5.7114,-5.7111,-5.7281,-5.7291,-5.7301,-5.7432,0,0,-5.7332,-5.7336,0,0,0,0,0,0,0,0,-5.6763,-5.6784,-5.6965,-5.6969,-5.6973,-5.7094,-5.7067,-5.7226,-5.7122,-5.7065,-5.7113,-5.7109,-5.7225,-5.7239,-5.7279,-5.744,-5.7447,-5.7333,-5.7339,-5.7343,-5.7346,0,0,0,0,0,0,0,-5.6752,-5.6776,-5.7014,-5.6967,-5.6973,-5.6972,-5.699,-5.7098,-5.7162,-5.707,-5.707,-5.709,-5.7227,-5.7269,-5.7283,-5.745,-5.7333,-5.7342,-5.7348,-5.7352,-5.7726,-5.773,0,0,0,0,0,0,-5.6737,-5.6767,-5.7009,-5.702,-5.6858,-5.6981,-5.7001,-5.7059,-5.7161,-5.7173,-5.7093,-5.7089,-5.7254,-5.7271,-5.7289,-5.7448,-5.7343,-5.7353,-5.7359,-5.7723,-5.7727,-5.7731,0,0,0,0,0,0,-5.673,-5.6758,-5.7002,-5.6894,-5.6925,-5.699,-5.7055,-5.7064,-5.7106,-5.7178,-5.719,-5.7125,-5.7252,-5.7275,-5.7396,-5.7454,-5.7357,-5.7366,-5.7718,-5.7724,-5.7729,-5.7767,0,0,0,0,0,0,-5.672,-5.6756,-5.6806,-5.6895,-5.6931,-5.7107,-5.7058,-5.707,-5.7124,-5.7121,-5.7211,-5.7223,-5.7251,-5.7381,-5.7406,-5.7466,-5.7374,-5.7713,-5.7721,-5.7728,-5.776,-5.7773,-5.7784,0,0,0,0,0,-5.6708,-5.6809,-5.6809,-5.6838,-5.6995,-5.711,-5.713,-5.7161,-5.7129,-5.7179,-5.7226,-5.722,-5.7444,-5.7394,-5.7422,-5.7485,-5.7709,-5.7718,-5.7727,-5.7755,-5.7771,-5.7783,0,0,0,0,0,0,-5.6724,-5.6821,-5.6821,-5.6954,-5.7024,-5.7109,-5.7174,-5.7176,-5.7256,-5.725,-5.7285,-5.7305,-5.7426,-5.7468,-5.7411,-5.7617,-5.7573,-5.7588,-5.7585,-5.76,-5.7611,-5.7597,-5.7383,0,0,0,0,0,-5.6744,-5.683,-5.691,-5.7019,-5.7054,-5.7109,-5.716,-5.7178,-5.7251,-5.728,-5.7336,-5.7407,-5.7493,-5.7549,-5.7633,-5.7768,-5.7787,-5.7826,-5.7837,-5.7846,-5.7858,-5.7932,-5.7949,-5.776,-5.776,-5.776,0,0,-5.6783,-5.6847,-5.6899,-5.7024,-5.708,-5.7168,-5.7133,-5.7227,-5.7292,-5.7294,-5.7412,-5.7456,-5.7538,-5.7666,-5.7725,-5.7705,-5.7915,-5.7857,-5.7864,-5.7871,-5.7942,-5.796,-5.7976,-5.7766,-5.7765,-5.7764,0,0,-5.69,-5.6958,-5.7055,-5.7113,-5.7199,-5.7234,-5.7258,-5.7344,-5.7373,-5.7492,-5.7495,-5.7574,-5.7722,-5.778,-5.7829,-5.7971,-5.7967,-5.7997,-5.8057,-5.8128,-5.8143,-5.8156,-5.8205,-5.8223,-5.8009,-5.8009,-5.8009,0,-5.6938,-5.7071,-5.7104,-5.7199,-5.7254,-5.7262,-5.736,-5.7414,-5.7523,-5.756,-5.7536,-5.7723,-5.7779,-5.792,-5.7955,-5.7995,-5.8022,-5.7985,-5.8139,-5.8152,-5.8165,-5.8212,-5.8231,-5.8012,-5.8012,-5.8011,-5.8011,0,-5.7113,-5.7206,-5.7274,-5.7379,-5.7442,-5.7538,-5.7585,-5.7645,-5.7659,-5.7697,-5.7818,-5.7886,-5.7983,-5.8019,-5.8032,-5.8163,-5.8148,-5.8131,-5.8086,-5.8185,-5.823,-5.8249,-5.8016,-5.8015,-5.8014,-5.8014,0,0,-5.7242,-5.7366,-5.7391,-5.7439,-5.7535,-5.7607,-5.7704,-5.78,-5.785,-5.7925,-5.8006,-5.8133,-5.8119,-5.8174,-5.8195,-5.8258,-5.8365,-5.8234,-5.8237,-5.8254,-5.8512,-5.8522,-5.8542,-5.8365,-5.8368,-5.8371,-5.8504,0,-5.7368,-5.754,-5.7573,-5.7722,-5.7808,-5.7817,-5.7902,-5.797,-5.8009,-5.8087,-5.813,-5.8219,-5.8194,-5.8228,-5.8291,-5.8338,-5.8416,-5.833,-5.8439,-5.8443,-5.8416,-5.8566,-5.8576,-5.8698,-5.8522,-5.8525,-5.8527,0,-5.7536,-5.7617,-5.7774,-5.786,-5.7897,-5.7972,-5.8063,-5.8138,-5.8216,-5.824,-5.8303,-5.8318,-5.8418,-5.8372,-5.8511,-5.8451,-5.8498,-5.8529,-5.8534,-5.8543,-5.8489,-5.8577,-5.8738,-5.8755,-5.8555,-5.8553,-5.8551,0,-5.7612,-5.776,-5.7873,-5.7914,-5.8018,-5.807,-5.8116,-5.8191,-5.8246,-5.8326,-5.8363,-5.8453,-5.8502,-5.8572,-5.861,-5.8573,-5.8746,-5.8703,-5.8768,-5.8767,-5.8801,-5.8798,-5.897,-5.8836,-5.8836,-5.8836,-5.8835,0,-5.7747,-5.7842,-5.7909,-5.7978,-5.8086,-5.8124,-5.823,-5.8275,-5.8341,-5.8419,-5.8435,-5.8507,-5.8555,-5.8635,-5.8666,-5.8775,-5.8798,-5.8819,-5.8826,-5.8817,-5.8814,-5.8846,-5.8838,-5.8841,-5.884,-5.8839,-5.8838,0,-5.7848,-5.7896,-5.802,-5.8109,-5.8133,-5.8209,-5.8284,-5.8352,-5.8392,-5.8491,-5.8517,-5.858,-5.8675,-5.8721,-5.8838,-5.8859,-5.8983,-5.8985,-5.8956,-5.8958,-5.902,-5.9013,-5.9217,-5.9245,-5.9095,-5.9096,-5.9097,0,-5.7929,-5.8003,-5.81,-5.8154,-5.8201,-5.8287,-5.8345,-5.8386,-5.8445,-5.8541,-5.8597,-5.8693,-5.8771,-5.8923,-5.8979,-5.9069,-5.9072,-5.9138,-5.9085,-5.9074,-5.9071,-5.9065,-5.9072,-5.9146,-5.9147,-5.9148,-5.9149,0,-5.8069,-5.8089,-5.8172,-5.8263,-5.8331,-5.8405,-5.8478,-5.8521,-5.8574,-5.864,-5.8737,-5.8799,-5.892,-5.9014,-5.9109,-5.9155,-5.9161,-5.9166,-5.9185,-5.9175,-5.9155,-5.9165,-5.8979,-5.916,-5.9159,-5.9158,-5.9158,-5.9157,-5.8161,-5.8227,-5.8306,-5.8397,-5.8457,-5.8524,-5.8592,-5.8642,-5.8724,-5.8826,-5.8846,-5.8949,-5.9027,-5.9154,-5.9204,-5.9286,-5.9271,-5.9299,-5.9306,-5.9312,-5.9314,-5.9144,-5.9303,-5.9303,-5.9303,-5.9303,-5.9302,0,-5.8299,-5.8351,-5.8435,-5.8536,-5.8608,-5.861,-5.869,-5.875,-5.8841,-5.8913,-5.899,-5.9103,-5.9195,-5.9259,-5.9353,-5.9406,-5.9411,-5.9429,-5.9424,-5.9435,-5.9323,-5.9296,-5.9423,-5.9423,-5.9423,-5.9423,-5.9423,-5.9423,-5.8379,-5.8491,-5.8521,-5.8663,-5.8714,-5.8815,-5.8861,-5.8924,-5.8981,-5.9106,-5.9183,-5.9225,-5.9294,-5.9393,-5.9478,-5.9495,-5.9527,-5.9545,-5.9561,-5.9455,-5.9442,-5.943,-5.9405,-5.9553,-5.9553,-5.9666,-5.9667,-5.9668]},{"header":{"parameterUnit":"m.s-1","parameterCategory":1,"la1":30.2991,"la2":30.254,"lo1":-89.0895,"lo2":-89.0444,"dy":0.0017,"dx":0.0017,"nx":28,"ny":28,"refTime":"2025-04-19T09:00:00:Z","depth":0,"parameterNumber":3,"parameterNumberName":"V-component_of_WINDS"},"data":[0,0,0,0,0,0,0,0,0,0,0,0,0,0,0,0,0,0,0,0,0,0,0,0,0,0,0,0,0,0,0,0,0,0,0,0,0,0,0,0,0,0,0,0,0,0,0,0,0,0,0,0,0,0,0,0,0,0,3.2278,3.2279,0,3.2347,3.2348,3.2349,3.2374,3.2373,3.2373,3.2373,3.2441,3.2443,3.2445,0,0,0,0,0,0,0,0,0,0,0,0,0,3.2166,3.2168,3.2278,3.2279,3.228,3.2347,3.2348,3.2349,3.2374,3.2373,3.2373,3.2373,3.244,3.2442,3.2445,0,0,0,0,0,0,0,0,0,0,0,0,0,3.2222,3.2168,3.2278,3.23,3.2303,3.2347,3.2348,3.2349,3.2374,3.2373,3.2373,3.2373,3.2439,3.2442,3.2445,3.2471,0,0,3.2454,3.2456,0,0,0,0,0,0,0,0,3.2219,3.2227,3.2296,3.2299,3.2302,3.2352,3.2333,3.239,3.2374,3.2347,3.2373,3.2372,3.2411,3.2416,3.243,3.2474,3.2477,3.2455,3.2457,3.2458,3.2459,0,0,0,0,0,0,0,3.2215,3.2224,3.2305,3.2297,3.2301,3.2306,3.2314,3.2344,3.238,3.2349,3.2351,3.2359,3.2413,3.2427,3.2432,3.2478,3.2455,3.2457,3.2459,3.246,3.2549,3.2549,0,0,0,0,0,0,3.2208,3.222,3.2303,3.2308,3.2259,3.2309,3.2317,3.2336,3.238,3.2386,3.2359,3.236,3.2422,3.2428,3.2434,3.2469,3.2458,3.2461,3.2462,3.2548,3.2549,3.2549,0,0,0,0,0,0,3.2205,3.2215,3.23,3.2265,3.2276,3.2311,3.2332,3.2337,3.2352,3.2388,3.2394,3.2368,3.2422,3.243,3.2462,3.2471,3.2462,3.2465,3.2548,3.2548,3.2549,3.2537,0,0,0,0,0,0,3.2202,3.2214,3.2225,3.2265,3.2278,3.2328,3.2332,3.2339,3.2358,3.2359,3.2397,3.2403,3.2422,3.2458,3.2465,3.2476,3.2467,3.2547,3.2548,3.2549,3.2537,3.2537,3.2538,0,0,0,0,0,3.2198,3.2218,3.2225,3.2235,3.2292,3.2328,3.2336,3.2359,3.2358,3.2369,3.2392,3.2402,3.2469,3.2461,3.247,3.2481,3.2546,3.2548,3.2549,3.2537,3.2537,3.2538,0,0,0,0,0,0,3.2176,3.2223,3.2232,3.2265,3.2293,3.2332,3.2347,3.2358,3.2386,3.2386,3.2412,3.242,3.2451,3.2469,3.2459,3.2509,3.2508,3.2511,3.2496,3.2497,3.2498,3.2493,3.247,0,0,0,0,0,3.2176,3.2202,3.2241,3.2267,3.2281,3.2311,3.2328,3.2343,3.2372,3.2384,3.2409,3.2436,3.2464,3.2481,3.2508,3.2539,3.2549,3.2552,3.2552,3.2552,3.2555,3.2574,3.2576,3.2553,3.2553,3.2553,0,0,3.2174,3.2203,3.2218,3.2263,3.2287,3.2313,3.2321,3.2348,3.2368,3.2388,3.2421,3.244,3.2472,3.2504,3.252,3.252,3.2563,3.2554,3.2554,3.2556,3.2575,3.2577,3.2579,3.2554,3.2554,3.2554,0,0,3.2186,3.221,3.2235,3.2258,3.2293,3.2314,3.232,3.2358,3.2372,3.2406,3.2421,3.2445,3.2491,3.2514,3.2532,3.2553,3.2563,3.2561,3.2563,3.2582,3.2583,3.2585,3.2594,3.2596,3.2563,3.2563,3.2563,0,3.2179,3.2221,3.2245,3.2273,3.2292,3.2313,3.2338,3.2359,3.2401,3.2414,3.2414,3.2474,3.2497,3.2535,3.2541,3.2554,3.2562,3.2557,3.2581,3.2583,3.2585,3.2594,3.2597,3.2562,3.2562,3.2562,3.2562,0,3.2211,3.224,3.2255,3.2297,3.2318,3.2344,3.2373,3.2391,3.2405,3.2425,3.2459,3.2488,3.2522,3.2532,3.2544,3.2572,3.2572,3.2576,3.2576,3.2587,3.2595,3.2598,3.2562,3.2562,3.2562,3.2562,0,0,3.2211,3.2267,3.2272,3.2292,3.2333,3.2355,3.2382,3.2417,3.2432,3.246,3.2484,3.2524,3.2529,3.2548,3.2564,3.258,3.2596,3.2583,3.2584,3.2585,3.263,3.2627,3.263,3.2603,3.2604,3.2604,3.2627,0,3.2228,3.2278,3.2302,3.2342,3.2369,3.2389,3.2412,3.244,3.246,3.2485,3.2506,3.2535,3.2538,3.2551,3.2567,3.2591,3.2606,3.2589,3.2625,3.2626,3.2618,3.2634,3.2631,3.2652,3.2631,3.2631,3.2632,0,3.2255,3.2285,3.2328,3.2367,3.2379,3.24,3.2434,3.2458,3.249,3.2503,3.2526,3.2542,3.2571,3.2568,3.2609,3.2597,3.2613,3.2627,3.2628,3.2633,3.263,3.2641,3.2658,3.2662,3.2637,3.2636,3.2636,0,3.2252,3.2302,3.2335,3.2351,3.2397,3.2412,3.2431,3.2463,3.2482,3.2512,3.2525,3.2557,3.2574,3.2598,3.2622,3.2618,3.2661,3.266,3.2673,3.2672,3.2681,3.268,3.2703,3.269,3.269,3.269,3.269,0,3.2269,3.2295,3.2335,3.2355,3.2384,3.2411,3.2439,3.246,3.2488,3.2512,3.2531,3.2553,3.2583,3.2609,3.2627,3.2658,3.2666,3.2677,3.2682,3.2676,3.2675,3.2688,3.2687,3.2691,3.269,3.269,3.269,0,3.227,3.2298,3.2335,3.2376,3.2387,3.2407,3.2442,3.2462,3.2484,3.2514,3.2523,3.2556,3.2588,3.2613,3.2654,3.2667,3.27,3.2705,3.269,3.2693,3.2704,3.2703,3.2736,3.2743,3.2724,3.2724,3.2725,0,3.228,3.2301,3.2344,3.2363,3.2383,3.2412,3.2432,3.2459,3.248,3.2518,3.2534,3.2567,3.2595,3.2645,3.2672,3.2704,3.271,3.272,3.2715,3.2709,3.2712,3.2711,3.2713,3.272,3.272,3.272,3.272,0,3.2295,3.2308,3.2337,3.2372,3.2396,3.2424,3.2453,3.2467,3.2499,3.2521,3.2554,3.2576,3.2619,3.2652,3.2687,3.2707,3.2719,3.2722,3.2727,3.2721,3.2712,3.2719,3.2692,3.2721,3.2721,3.2721,3.2721,3.2721,3.2301,3.2321,3.2356,3.2388,3.2413,3.2439,3.2461,3.2485,3.2514,3.2552,3.2566,3.26,3.2632,3.2681,3.2701,3.2728,3.2729,3.2736,3.2738,3.2739,3.2739,3.2707,3.2734,3.2734,3.2734,3.2734,3.2734,0,3.2318,3.2342,3.2371,3.2412,3.2437,3.2448,3.248,3.2501,3.2531,3.256,3.2588,3.2627,3.266,3.269,3.2724,3.274,3.2746,3.2748,3.2747,3.2752,3.2735,3.2728,3.2742,3.2742,3.2742,3.2742,3.2742,3.2742,3.233,3.2364,3.2381,3.2428,3.2452,3.2486,3.2504,3.2529,3.2553,3.2596,3.2623,3.2643,3.2673,3.2709,3.274,3.2748,3.276,3.276,3.277,3.2754,3.2753,3.2752,3.2745,3.2762,3.2762,3.2784,3.2784,3.2784]}]]